7 * 24
多渠道服务支持
STARLINK-37239(NORAD编号100018,国际编号2025-158M)是SpaceX研发的第二代星链V2-mini卫星,隶属星链星座17-2极地轨道组,于2025年发射升空,运行于约550公里高度的近地轨道,设计寿命约5年。 作为星链全球互联网组网的组成部分,该卫星搭载升级版相控阵天线,支持高速星间数据传输,可向全球通信基础设施薄弱区域提供千兆级宽带网络接入服务,其运行可能对光学及射电天文观测产生一定干扰,截至2026年7月在轨状态稳定。
美国
(US)
| 数据来源 | 国际轨道数据 |
| 星历时间: | 2026-09-15T14:56:20+0800 6小时前 查看轨道信息 |
| 半长轴: | 6715.102km |
| 偏心率: | 0.0004547 |
| 轨道倾角: | 70.001° |
| 近地点辐角 | 287.513° |
| 升交点赤经 | 209.571° |
| 平近点角 | 72.557° |
| 近地点: | 333.911km |
| 远地点: | 340.019km |
| 周期: | 91.272分钟 |
| 每日圈数: | 15.776981 |